Location: Ferri�re
(48.1351°N, 1.1874°W)
Time: 03:57:38
(UTC+00:00)

Daily predictions for brighter satellites

Satellite Brightness Start Highest point End
(mag) Time Altitude Azimuth Time Altitude Azimuth Time Altitude Azimuth
ATLAS CENTAUR R/B 3.7 00:07:30 16° SW 00:12:09 90° NNW 00:27:00 10° NE
Cosmos 1825 4.0 00:13:02 18° ESE 00:14:11 20° E 00:16:59 10° NE
Cosmos 1812 Rocket 3.7 00:13:42 10° NNW 00:18:00 60° W 00:19:25 39° SSW
Cosmos 990 Rocket 4.4 00:14:13 10° NNW 00:19:22 59° ENE 00:22:37 22° SE
Cosmos 1408 3.5 00:19:17 33° SE 00:20:08 38° E 00:23:35 10° NNE
SL-16 R/B 2.2 00:19:56 27° SW 00:23:08 80° WNW 00:28:50 10° NNE
Cosmos 405 Rocket 3.9 00:23:36 25° ESE 00:24:31 28° E 00:27:44 10° NNE
Cosmos 2221 4.3 00:21:56 10° NNE 00:25:31 25° ENE 00:28:24 13° ESE
USA 229 DEB 3.8 00:22:35 30° S 00:25:40 55° ESE 00:32:18 10° NE
USA 229 3.8 00:22:43 30° S 00:25:47 55° ESE 00:32:24 10° NE
X-37B 3.0 00:28:47 14° ESE 00:28:47 14° ESE 00:29:19 10° E
Cosmos 2237 Rocket 3.6 00:21:22 10° WSW 00:26:24 33° NW 00:31:27 10° NNE
Cosmos 1898 Rocket 3.9 00:27:28 10° NNW 00:32:41 62° ENE 00:36:10 21° SE
Cosmos 1937 Rocket 4.4 00:27:45 10° NNW 00:32:54 47° ENE 00:37:19 14° SE
NOSS 8 (F) 4.1 00:33:59 62° SE 00:34:07 63° SE 00:37:03 10° NE
NOSS 3-1 (C) 3.2 00:31:10 27° SW 00:34:19 88° SE 00:40:42 10° NE
Cosmos 2369 Rocket 2.3 00:29:20 10° NNW 00:35:05 79° ENE 00:38:58 21° SSE
Cosmos 1356 3.6 00:37:29 49° SE 00:38:05 59° E 00:41:27 10° NNE
CREW DRAGON DEMO-1 DEB 4.4 00:40:05 20° E 00:40:05 20° E 00:41:01 10° ENE
SJ 16-02 2.0 00:34:48 10° NW 00:38:55 40° WSW 00:40:01 34° SW
GP-B 3.7 00:35:53 10° N 00:40:09 46° W 00:41:51 30° SW
NOSS 2-3 (E) 3.5 00:42:31 34° SW 00:44:19 89° NW 00:49:15 10° NE
EP 2 4.4 00:44:03 70° SW 00:44:22 90° NNE 00:47:25 10° NE
NOSS 3-1 (A) 3.3 00:42:41 31° SSW 00:45:17 65° SE 00:51:32 10° NE
USA 215 3.8 00:40:27 10° NE 00:46:52 60° NNW 00:53:15 10° W
Cosmos 1825 Rocket 3.6 00:45:41 37° SSW 00:47:25 76° W 00:51:53 10° N
Cosmos 2263 4.3 00:43:01 10° NNW 00:48:45 75° ENE 00:53:07 17° SE
ATLAS 5 CENTAUR R/B 3.6 00:48:04 12° ESE 00:48:53 12° ESE 00:50:32 10° E
CZ-4 R/B 4.3 00:46:53 10° NNE 00:51:26 49° E 00:53:33 28° SSE
Cosmos 1932 4.4 00:47:40 10° NW 00:53:57 84° NE 01:00:03 10° SE
CZ-3B R/B 4.1 00:43:08 10° W 00:55:52 47° N 00:59:34 10° ENE
NOSS 8 (H) 4.1 01:00:24 59° S 01:00:46 68° SE 01:03:42 10° NE
Cosmos 1606 4.1 00:58:13 10° N 01:01:43 32° ENE 01:04:12 16° SE
Helios 1A 3.1 01:00:06 29° SSE 01:02:11 75° ENE 01:06:24 10° N
Cosmos 468 Rocket 3.9 01:00:57 31° SSW 01:03:30 87° ESE 01:08:46 10° NNE
SL-16 R/B 3.3 01:00:11 10° SE 01:06:08 51° ENE 01:12:05 10° N
USA 305 4.1 01:10:32 24° SSE 01:11:11 25° SE 01:14:42 10° ENE
USA 290 4.4 01:11:15 15° ESE 01:12:10 17° ESE 01:14:19 10° ENE
Cosmos 1953 Rocket 3.7 01:10:29 33° SSW 01:12:20 63° WNW 01:16:44 10° N
Lacrosse 4 Rocket 2.8 01:10:07 10° NNW 01:13:57 36° NE 01:17:43 10° ESE
Cosmos 2098 Rocket 3.6 01:15:08 25° S 01:18:17 65° E 01:22:40 10° NNE
Cosmos 1763 Rocket 3.5 01:15:44 28° SW 01:18:27 73° WNW 01:23:37 10° NNE
BREEZE-M R/B 3.7 01:18:12 23° SSE 01:18:42 24° SE 01:22:09 10° E
Cosmos 1869 4.4 01:16:08 10° NNW 01:19:48 32° W 01:21:00 26° SW
Cosmos 1437 Rocket 2.6 01:16:55 10° NNW 01:20:49 74° W 01:22:19 35° S
Resurs 1-4 Rocket 2.8 01:15:50 10° NNE 01:20:58 46° E 01:24:24 20° SSE
USA 267 4.0 01:19:19 24° SSW 01:21:48 31° SW 01:27:31 10° WNW
Cosmos 1892 3.9 01:21:02 24° WSW 01:22:32 32° WNW 01:26:04 10° N
SL-4 R/B 2.7 01:20:51 10° WNW 01:24:33 47° N 01:28:01 10° ENE
NOSS 2-3 (D) 4.4 01:22:26 18° WSW 01:25:25 49° NW 01:30:19 10° NE
Cosmos 1943 Rocket 3.4 01:23:37 10° NW 01:27:51 23° WSW 01:29:31 20° SW
Cosmos 1842 Rocket 3.5 01:26:34 10° NNW 01:30:55 77° W 01:33:14 27° S
NOSS 2-2 (D) 4.4 01:30:21 23° SSE 01:31:20 26° ESE 01:34:25 10° ENE
NPP 4.4 01:26:57 10° NNE 01:32:09 46° E 01:35:57 18° SSE
ADEOS II 3.6 01:27:55 10° NE 01:32:27 28° E 01:36:49 11° SSE
USA 306 3.7 01:32:05 28° S 01:33:27 35° SE 01:37:20 10° ENE
Lacrosse 5 rocket 3.6 01:30:34 10° NW 01:33:32 24° NNE 01:36:32 10° ENE
Meteor 2-8 Rocket 4.4 01:28:11 10° N 01:34:20 83° W 01:38:53 19° S
Cosmos 921 Rocket 3.2 01:32:38 27° S 01:34:43 60° ESE 01:38:51 10° NNE
Exosat Rocket 4.0 01:30:27 21° SW 01:34:44 67° WNW 01:39:56 10° NNE
FALCON 9 DEB 3.0 01:31:54 10° WNW 01:35:19 90° SW 01:38:43 10° ESE
Cosmos 1943 3.2 01:33:25 24° SSW 01:36:54 82° WNW 01:42:36 10° NNE
CZ-2D R/B 2.3 01:34:33 10° NNE 01:39:45 64° ESE 01:43:15 21° S
MOZ.5/SAFIR/RUBIN 5/SL-8 4.0 01:38:05 25° S 01:40:42 58° W 01:45:25 10° NNW
Cosmos 1603 3.8 01:41:52 22° SW 01:45:38 69° WNW 01:51:18 10° NNE
Cosmos 2151 3.8 01:44:56 17° SSE 01:47:50 45° E 01:51:52 10° NNE
Cosmos 1825 3.3 01:47:48 22° WSW 01:49:26 32° WNW 01:52:53 10° N
AQUA 4.3 01:47:06 10° NNE 01:51:47 53° E 01:55:17 17° S
Cosmos 1076 Rocket 3.4 01:49:45 24° S 01:52:14 88° E 01:56:31 10° N
Cosmos 1437 2.2 01:51:57 10° NNW 01:54:45 82° W 01:55:51 33° S
Cosmos 540 Rocket 3.7 01:55:00 21° SW 01:58:19 60° WNW 02:03:25 10° NNE
Cosmos 1242 Rocket 3.0 01:55:01 10° NNW 01:58:28 45° W 02:00:05 26° SSW
Cosmos 405 Rocket 4.3 01:58:43 16° WSW 02:00:30 22° WNW 02:03:28 10° NNW
DELTA 2 R/B (1) 4.2 01:57:41 20° SW 02:00:42 33° S 02:05:38 10° ESE
X-37B 0.9 02:01:04 23° WSW 02:02:41 44° S 02:05:44 10° ESE
Cosmos 2058 3.9 02:00:33 20° SW 02:02:42 34° WNW 02:06:28 10° N
Cosmos 2221 3.4 01:59:15 10° NNW 02:03:08 34° W 02:05:12 22° SW
BREEZE-M DEB (TANK) 1.5 02:02:29 10° W 02:05:17 70° N 02:07:33 10° E
IRS-1D 4.5 02:01:40 10° NNE 02:06:33 41° E 02:11:14 10° SSE
Cosmos 841 Rocket 3.7 02:03:07 20° SW 02:06:38 60° WNW 02:11:45 10° NNE
SL-16 R/B 4.3 02:04:14 10° W 02:08:12 19° NW 02:12:11 10° N
Cosmos 1656 Rocket 4.5 02:03:13 10° NW 02:08:16 33° WSW 02:11:35 18° SSW
Cosmos 1553 Rocket 4.4 02:03:35 10° N 02:09:53 65° ENE 02:16:01 10° SSE
NOSS 2-2 (E) 3.0 02:08:02 24° SW 02:10:00 86° SE 02:13:51 10° NE
Cosmos 2292 Rocket 3.8 02:09:53 14° SSE 02:12:03 37° E 02:14:52 10° NNE
CREW DRAGON DEMO-1 DEB 3.6 02:10:06 10° W 02:12:22 38° N 02:14:41 10° ENE
FALCON 9 DEB 3.6 02:11:08 10° WNW 02:14:15 57° NNE 02:17:20 10° E
Cosmos 1782 3.7 02:12:36 10° N 02:16:30 48° ENE 02:20:23 10° SSE
USA 307 2.9 02:14:11 20° SW 02:17:02 65° SE 02:21:16 10° ENE
Cosmos 1271 Rocket 4.3 02:14:55 10° N 02:18:20 32° ENE 02:21:44 10° SE
Cosmos 2369 Rocket 3.7 02:14:37 10° WNW 02:18:25 18° W 02:20:42 15° SW
USA 281 3.8 02:12:20 10° SE 02:18:45 60° ENE 02:25:12 10° NNW
Cosmos 2026 Rocket 4.1 02:16:00 16° SSW 02:21:12 77° W 02:27:36 10° N
NOSS 2-2 (C) 3.0 02:21:26 20° SW 02:23:41 90° ENE 02:27:27 10° NE
Aureole 3 Rocket 3.8 02:21:09 10° NNW 02:24:51 39° W 02:28:38 15° SSW
CZ-4C R/B 4.4 02:22:32 10° SE 02:25:46 38° ENE 02:29:02 10° N
ERBS 4.0 02:24:39 14° S 02:26:25 21° SE 02:28:55 10° E
Helios 1B rocket 2.7 02:23:25 10° N 02:27:26 57° WNW 02:30:26 17° SW
Cosmos 1633 3.4 02:27:25 18° SW 02:29:31 36° WNW 02:32:49 10° N
Cosmos 1328 Rocket 4.5 02:26:14 10° N 02:30:29 48° ENE 02:34:44 10° SSE
FALCON 9 DEB 2.8 02:28:08 10° WNW 02:31:14 90° NNW 02:34:18 10° ESE
SL-19 R/B 4.2 02:26:49 10° NNE 02:32:05 77° WNW 02:36:51 14° SSW
ATLAS 5 CENTAUR R/B 1.4 02:29:34 17° SW 02:32:36 81° NW 02:37:07 10° NE
USA 308 2.9 02:29:31 15° SW 02:32:57 81° SSE 02:37:13 10° ENE
Cosmos 2298 Rocket 4.0 02:27:56 10° NNW 02:33:16 72° WSW 02:38:34 10° SSE
SeaSat 1 3.8 02:31:42 10° NE 02:36:08 32° ESE 02:40:31 10° S
Cosmos 1814 Rocket 4.5 02:32:04 15° SW 02:36:15 50° WNW 02:41:18 10° NNE
Cosmos 1606 4.3 02:34:18 10° NW 02:37:12 21° W 02:39:10 14° SW
FALCON 9 DEB 2.9 02:34:58 10° WNW 02:38:06 83° NNE 02:41:13 10° ESE
FALCON 9 DEB 2.7 02:38:23 10° WNW 02:41:30 81° SSW 02:44:35 10° ESE
ADEOS Rocket 3.4 02:34:15 10° S 02:41:30 66° WSW 02:48:05 10° NNW
Cosmos 1933 3.7 02:39:47 10° NNW 02:43:44 48° W 02:47:30 11° SSW
IRIDIUM 104 4.3 02:38:57 10° N 02:44:11 77° W 02:49:24 10° S
Cosmos 2150 Rocket 4.1 02:39:40 10° NNW 02:44:47 61° WSW 02:49:58 10° S
USA 290 3.4 02:44:01 14° WSW 02:46:22 31° WNW 02:49:17 10° N
SL-16 R/B 3.4 02:44:57 12° SSW 02:49:57 32° W 02:55:26 10° NNW
Meteor 1-28 Rocket 3.3 02:46:17 10° S 02:50:03 62° W 02:53:50 10° NNW
USA 305 3.0 02:46:34 10° WSW 02:50:47 77° NNW 02:55:03 10° ENE
DELTA 2 DEB (DPAF) 4.2 02:46:39 10° S 02:51:03 60° WSW 02:55:28 10° NNW
Lacrosse 4 Rocket 2.3 02:49:01 10° NW 02:52:28 27° WSW 02:55:54 10° S
Cosmos 1125 Rocket 3.5 02:47:29 10° NNW 02:52:42 64° WSW 02:57:54 10° S
IRIDIUM 114 4.4 02:48:09 10° N 02:53:20 65° W 02:58:29 10° S
Cosmos 1151 Rocket 2.9 02:49:55 10° NNW 02:54:11 76° W 02:58:26 10° S
Cosmos 2266 Rocket 4.3 02:50:54 10° S 02:56:56 66° E 03:02:57 10° NNE
Meteor 1-29 3.6 02:54:18 10° N 02:57:34 42° WNW 03:00:31 12° SW
ARIANE 5 R/B 3.4 02:55:20 10° NNE 03:00:08 45° E 03:04:56 10° S
OE (NEXTSAT) 4.4 02:56:57 10° W 03:00:22 59° S 03:03:45 10° ESE
Resurs 1-4 Rocket 3.3 02:56:02 10° N 03:00:35 30° WNW 03:05:08 10° WSW
CZ-4C R/B 3.0 02:57:04 10° S 03:01:34 40° ESE 03:06:55 10° NE
Cosmos 1515 Rocket 4.2 02:57:17 10° N 03:01:40 58° ENE 03:06:03 10° SSE
Cosmos 1766 Rocket 3.6 02:59:28 10° SSW 03:03:54 76° W 03:08:25 10° N
SL-4 R/B 1.9 03:00:45 10° WNW 03:04:23 72° NNE 03:07:50 10° ESE
Landsat 4 4.3 03:01:07 10° N 03:04:43 43° WNW 03:08:17 10° SW
Cosmos 1408 Rocket 4.1 03:02:11 10° S 03:06:34 61° E 03:10:59 10° NNE
USA 238 DEB 4.3 03:01:08 10° NW 03:08:20 69° NE 03:15:53 10° SE
USA 238 4.3 03:01:15 10° NW 03:08:27 69° NE 03:15:59 10° SE
CENTAUR R/B 3.6 03:00:52 10° NW 03:08:51 70° NE 03:17:42 10° SE
ADEOS II 2.7 03:07:18 10° N 03:12:19 45° WNW 03:17:18 10° SW
Lacrosse 5 rocket 1.3 03:09:29 10° NW 03:13:05 74° NE 03:16:47 10° ESE
USA 306 3.3 03:09:02 10° WSW 03:13:15 61° NNW 03:17:28 10° ENE
Cosmos 1862 3.6 03:09:28 10° S 03:13:29 73° E 03:17:33 10° NNE
Okean 3 Rocket 3.7 03:10:28 10° SSW 03:14:47 60° WNW 03:19:09 10° N
CZ-2D R/B 3.7 03:15:27 10° N 03:19:22 22° WNW 03:23:16 10° WSW
Meteor 2-3 Rocket 4.3 03:14:10 10° SW 03:19:27 42° WNW 03:24:44 10° N
ASTEX 1 3.6 03:19:57 10° S 03:24:47 54° W 03:29:38 10° NNW
Cosmos 1655 Rocket 4.1 03:18:42 10° SSW 03:24:54 71° W 03:31:10 10° N
IDEFIX/ARIANE 42P 2.8 03:21:32 10° N 03:26:42 60° WNW 03:31:49 10° SSW
